FALCON 9 DEB (46593 NORAD) Tracking and Keplerian Element Data

This shows tracking and keplerian element data for the satellite.

Feedback or suggestion? Click here.




ElementValue
Catalog46593
NameFALCON 9 DEB
Epoch Orbit442
Epoch Day303.12012592
Epoch Year2020
RAAN326.6835
Inclination52.9888
Eccentricity0.0012733
Argument of Perigee34.998
Mean Anonmoly325.1889
Mean Motion16.14554006
Decay Rate0.00645029
L11 46593U 20070BP 20303.12012592 .00645029 25029-3 48387-3 0 9996
L22 46593 52.9888 326.6835 0012733 34.9980 325.1889 16.14554006 4429

Live tracking and technical data element details for FALCON 9 DEB (NORAD 46593). FALCON 9 DEB can be tracked NOW for your location showing map with azimuth and elevation plus other details from your city location.

Track the satellite on the map from your city or location and see movement details for azimuth, elevation, latitude, longitude, range, height, and movement on the map or in text.







IsCatalogInMostPopularTable: catalog: 46593, numindb: 2
Update: records affected: 1



GetName: 46593 FALCON 9 DEB

Hit Count: updated at: Fri, 30 Oct 2020 02:43:58 GMT